Flag for U.S.A. Weather past 2 weeks in Lexington, North Carolina, U.S.A.

Now
54 °F

Sunny.


Feels Like: 54 °F
Forecast: 31 / 59 °F
Wind: 3 mph from Southwest

Location: Davidson County Airport

Current Time: Dec 27, 2014 at 11:38:16 AM

Latest Report: Dec 27, 2014 at 11:15 AM


Visibility: 10 mi

Pressure: 30.29 "Hg

Humidity: 56%

Dew point: 39 °F

Location of LexingtonLocation

Historic Weather in Lexington — Graph

°F

Lexington temperature yesterday

Maximum temperature yesterday: 58 °F (at 2:15 PM)
Minimum temperature yesterday: 27 °F (at 7:35 AM)
Average temperature yesterday: 40 °F

Past Weeks' High & Low Weather Summary

 TemperatureHumidityPressure
High62 °F (Dec 13, 2:55 PM)99% (Dec 23, 5:15 PM)30.36 "Hg (Dec 23, 5:15 PM)
Low25 °F (Dec 13, 6:55 AM)16% (Dec 13, 11:55 AM)29.65 "Hg (Dec 24, 6:15 PM)
Average42 °F71%30.10 "Hg
* Reported Dec 12 10:15 AM — Dec 27 10:15 AM, Lexington, Weather by CustomWeather, © 2014

Note: Actual official high and low records may vary slightly from our data, if they occured in-between our weather recording intervals... More about our weather records

Advertising

Lexington weather history for previous 24 hours

 ConditionsComfort  
Time TempWeatherWind HumidityBarometerVisibility
10:15 AM
Dec 27
48 °FSunny.5 mph67%30.33 "Hg10 mi
9:55 AM46 °FSunny.3 mph73%30.31 "Hg10 mi
9:35 AM43 °FSunny.No wind77%30.31 "Hg10 mi
9:15 AM41 °FSunny.No wind82%30.31 "Hg10 mi
8:55 AM38 °FSunny.No wind89%30.30 "Hg10 mi
8:35 AM35 °FSunny.No wind92%30.30 "Hg10 mi
8:15 AM32 °FSunny.No wind96%30.29 "Hg10 mi
7:55 AM31 °FSunny.No wind97%30.30 "Hg7 mi
7:35 AM31 °FSunny.No wind96%30.30 "Hg10 mi
7:15 AM31 °FClear.No wind95%30.29 "Hg10 mi
6:55 AM32 °FClear.No wind96%30.29 "Hg10 mi
6:35 AM32 °FClear.No wind96%30.29 "Hg10 mi
6:15 AM31 °FClear.No wind96%30.28 "Hg10 mi
5:55 AM32 °FClear.No wind96%30.27 "Hg10 mi
5:35 AM31 °FClear.No wind96%30.28 "Hg10 mi
5:15 AM31 °FClear.No wind96%30.26 "Hg10 mi
4:55 AM30 °FClear.No wind96%30.27 "Hg7 mi
4:35 AM31 °FClear.No wind96%30.28 "Hg7 mi
4:15 AM32 °FClear.No wind96%30.29 "Hg10 mi
3:55 AM32 °FClear.No wind96%30.28 "Hg10 mi
3:35 AM32 °FClear.No wind94%30.27 "Hg10 mi
3:15 AM32 °FClear.No wind96%30.26 "Hg10 mi
2:55 AM32 °FClear.No wind96%30.28 "Hg10 mi
2:35 AM32 °FClear.No wind95%30.28 "Hg10 mi
2:15 AM32 °FClear.No wind95%30.28 "Hg10 mi
1:55 AM32 °FClear.No wind92%30.28 "Hg10 mi
1:35 AM32 °FClear.No wind96%30.29 "Hg10 mi
1:15 AM32 °FClear.No wind96%30.29 "Hg10 mi
12:55 AM33 °FClear.No wind95%30.28 "Hg10 mi
12:35 AM33 °FClear.No wind95%30.30 "Hg10 mi
12:15 AM32 °FClear.No wind96%30.30 "Hg10 mi
11:55 PM
Dec 26
32 °FClear.No wind96%30.30 "Hg10 mi
11:35 PM33 °FClear.No wind96%30.31 "Hg10 mi
11:15 PM34 °FClear.No wind92%30.31 "Hg10 mi
10:35 PM35 °FClear.No wind89%30.31 "Hg10 mi
10:15 PM36 °FClear.No wind86%30.30 "Hg10 mi
9:55 PM35 °FClear.No wind91%30.30 "Hg10 mi
9:15 PM35 °FClear.No wind88%30.31 "Hg10 mi
8:55 PM37 °FClear.No wind84%30.31 "Hg10 mi
8:35 PM38 °FClear.No wind83%30.31 "Hg10 mi
8:15 PM38 °FClear.No wind83%30.31 "Hg10 mi
7:55 PM40 °FClear.No wind77%30.32 "Hg10 mi
7:15 PM42 °FClear.No wind72%30.30 "Hg10 mi
6:55 PM43 °FClear.No wind69%30.29 "Hg10 mi
6:35 PM45 °FClear.No wind64%30.30 "Hg10 mi
6:15 PM46 °FClear.No wind63%30.29 "Hg10 mi
5:55 PM48 °FClear.No wind58%30.29 "Hg10 mi
5:35 PM49 °FClear.No wind52%30.27 "Hg10 mi
5:15 PM51 °FClear.No wind50%30.27 "Hg10 mi
4:55 PM53 °FSunny.No wind46%30.27 "Hg10 mi
4:15 PM57 °FSunny.No wind39%30.27 "Hg10 mi
3:55 PM58 °FSunny.3 mph37%30.28 "Hg10 mi
3:15 PM58 °FSunny.5 mph38%30.28 "Hg10 mi
2:55 PM58 °FSunny.3 mph37%30.28 "Hg10 mi
2:35 PM58 °FSunny.3 mph38%30.27 "Hg10 mi
2:15 PM58 °FSunny.3 mph40%30.27 "Hg10 mi
1:55 PM57 °FSunny.5 mph44%30.28 "Hg10 mi
1:35 PM57 °FSunny.3 mph44%30.28 "Hg10 mi
1:15 PM55 °FSunny.6 mph48%30.29 "Hg10 mi
12:55 PM55 °FSunny.3 mph47%30.30 "Hg10 mi
12:35 PM54 °FSunny.3 mph47%30.30 "Hg10 mi
12:15 PM53 °FSunny.5 mph50%30.31 "Hg10 mi
11:55 AM51 °FSunny.3 mph52%30.33 "Hg10 mi
11:15 AM48 °FSunny.No wind55%30.35 "Hg10 mi
Weather by CustomWeather, © 2014

See weather overviewHow to use our weather pages